Location: Unspecified
(43.4680°N, 87.1740°E)
Time: 20:38:33
(UTC+00:00)

Cosmos 614 Rocket - Pass Details

Date: 17 April 2021
Orbit: 734 x 762 km, 74.1° (Epoch: 12 May)

Event Time Altitude Azimuth Distance (km) Brightness Sun altitude
Exits shadow 14:33:14 11° 177° (S) 2,178 6.0 -16.7°
Maximum altitude 14:37:55 49° 104° (ESE) 965 4.1 -17.4°
Drops below altitude 10° 14:42:50 10° 31° (NNE) 2,262 6.5 -18.1°
Sets 14:45:15 0° 26° (NNE) 3,185 7.3 -18.5°
